sat.trackr.live / text

‹ back to catalog

CENTISPACE-1 S7

NORAD 62576 · 2025-007B

PAYLOAD ACTIVE UNKNOWN

§ Identity

Operator
Country
PRC
Launch date
2025-01-13
Launch site
YSLA
Launch vehicle
Mass (kg)
RCS (m²)

External: N2YO · Heavens-Above · Gunter

§ Orbital elements

Epoch: 2026-05-25T03:20:50.209728Z

Period
104.30 min
Inclination
54.9777°
Eccentricity
0.0013447
Mean motion
13.80604925 rev/d
Perigee alt
951.9 km
Apogee alt
971.6 km
Semi-major
7,339.9 km
B*
9.3201e-5
RAAN
12.6033°
Arg perigee
28.8660°
Mean anomaly
331.3037°
Rev number
7,153

§ Raw data

CENTISPACE-1 S71 62576U 25007B   26145.13947002 -.00000042  00000+0  93201-4 0  99992 62576  54.9777  12.6033 0013447  28.8660 331.3037 13.80604925 71535

JSON: /api/v1/satellites/62576 · /tle

For live sub-satellite position, see the globe view (requires WebGL).

§ Visibility from observer

Set your observer location to see the next 7 days of passes ≥ 10°. The values pass through the URL so the page stays shareable.

No JS? Fill the form by hand. The geolocation button needs JavaScript.

§ Radio — SatNOGS DB

ModeDescriptionDownlinkUplink
FM S-band telemetry 2.260 GHz

1 transmitter · refreshed weekly from db.satnogs.org